GW0610 Weather Reports


time (UTC)temp
F
wind
direction
speed
knots
gust
knots
rain 1hr
in
rain 24hr
in
rain mn
in
humidity
%
barometer
mb
20260505011554 70 182 0.9 4.3 0.00 0.00 0.00 60 1013.3
20260505011053 71 0 0.9 4.3 0.00 0.00 0.00 60 1013.3
20260505010552 71 0 0.0 3.5 0.00 0.00 0.00 60 1013.2
20260505010052 71 175 0.0 4.3 0.00 0.00 0.00 60 1013.4
20260505005552 71 0 0.9 4.3 0.00 0.00 0.00 59 1013.4
20260505005053 71 160 0.9 4.3 0.00 0.00 0.00 59 1013.5
20260505004557 71 183 1.7 4.3 0.00 0.00 0.00 59 1013.6
20260505004051 72 0 0.0 7.0 0.00 0.00 0.00 59 1013.6
20260505003551 72 199 1.7 7.0 0.00 0.00 0.00 58 1013.5
20260505003051 72 188 0.9 7.0 0.00 0.00 0.00 57 1013.6
20260505002555 72 198 0.9 5.2 0.00 0.00 0.00 56 1013.7
20260505002052 73 185 1.7 5.2 0.00 0.00 0.00 56 1013.6
20260505001555 73 182 0.0 4.3 0.00 0.00 0.00 56 1013.6
20260505001052 73 204 0.9 5.2 0.00 0.00 0.00 55 1013.6
20260505000552 73 201 0.9 5.2 0.00 0.00 0.00 54 1013.6
20260505000113 73 188 0.9 7.0 0.00 0.00 0.00 54 1013.5
20260504235552 73 195 0.9 7.0 0.00 0.00 0.00 54 1013.5
20260504235051 74 207 2.6 7.8 0.00 0.00 0.00 53 1013.6
20260504234554 74 190 2.6 7.8 0.00 0.00 0.00 53 1013.7
20260504234050 74 190 0.9 8.7 0.00 0.00 0.00 53 1013.7
20260504233550 74 215 2.6 8.7 0.00 0.00 0.00 52 1013.9
20260504233055 74 197 2.6 8.7 0.00 0.00 0.00 52 1013.9
20260504232551 74 92 1.7 9.6 0.00 0.00 0.00 52 1013.8
20260504232050 75 253 3.5 9.6 0.00 0.00 0.00 50 1013.8
20260504231553 75 184 2.6 8.7 0.00 0.00 0.00 49 1014.0
20260504231050 75 177 3.5 7.8 0.00 0.00 0.00 49 1014.0
20260504230551 76 210 0.9 7.8 0.00 0.00 0.00 49 1014.1
20260504230105 76 216 2.6 7.8 0.00 0.00 0.00 48 1014.1
20260504225552 76 226 3.5 8.7 0.00 0.00 0.00 46 1014.0
20260504225051 76 211 2.6 9.6 0.00 0.00 0.00 45 1014.1
20260504224556 77 204 2.6 9.6 0.00 0.00 0.00 46 1014.1
20260504224051 77 197 0.9 7.8 0.00 0.00 0.00 43 1014.2
20260504223551 77 200 2.6 8.7 0.00 0.00 0.00 44 1014.4
20260504223056 77 95 2.6 8.7 0.00 0.00 0.00 43 1014.3
20260504222551 77 229 0.9 5.2 0.00 0.00 0.00 45 1014.3
20260504222050 76 165 2.6 7.0 0.00 0.00 0.00 44 1014.2
20260504221603 76 132 2.6 7.0 0.00 0.00 0.00 43 1014.4
20260504221050 76 205 3.5 7.0 0.00 0.00 0.00 42 1014.6
20260504220551 77 230 2.6 7.8 0.00 0.00 0.00 43 1014.6
20260504220059 77 169 2.6 7.8 0.00 0.00 0.00 42 1014.5
20260504215553 77 158 3.5 8.7 0.00 0.00 0.00 42 1014.5
20260504215053 77 236 3.5 8.7 0.00 0.00 0.00 43 1014.5
20260504214556 77 222 2.6 6.1 0.00 0.00 0.00 43 1014.4
20260504214050 77 167 1.7 7.8 0.00 0.00 0.00 43 1014.5
20260504213550 77 121 1.7 8.7 0.00 0.00 0.00 43 1014.5
20260504213054 77 205 1.7 8.7 0.00 0.00 0.00 43 1014.4
20260504212551 78 253 1.7 8.7 0.00 0.00 0.00 43 1014.5
20260504212053 77 169 2.6 8.7 0.00 0.00 0.00 43 1014.6
20260504211553 77 206 2.6 7.8 0.00 0.00 0.00 42 1014.7
20260504211051 78 192 2.6 7.0 0.00 0.00 0.00 41 1014.5
20260504210553 78 207 3.5 7.8 0.00 0.00 0.00 41 1014.5
20260504210055 78 140 2.6 7.8 0.00 0.00 0.00 41 1014.5
20260504205550 77 219 2.6 8.7 0.00 0.00 0.00 42 1014.5
20260504205051 77 224 4.3 8.7 0.00 0.00 0.00 40 1014.7
20260504204600 77 247 3.5 10.4 0.00 0.00 0.00 40 1014.9
20260504204051 77 182 3.5 10.4 0.00 0.00 0.00 40 1014.9
20260504203553 77 252 2.6 9.6 0.00 0.00 0.00 39 1015.0
20260504203101 77 172 2.6 13.0 0.00 0.00 0.00 41 1015.1
20260504202552 77 205 3.5 13.0 0.00 0.00 0.00 40 1015.1
20260504202052 77 119 5.2 13.0 0.00 0.00 0.00 40 1015.2
20260504201554 77 243 4.3 8.7 0.00 0.00 0.00 39 1015.3
20260504201055 78 198 2.6 7.0 0.00 0.00 0.00 40 1015.3
20260504200552 77 203 3.5 13.0 0.00 0.00 0.00 40 1015.4
20260504200056 77 261 4.3 13.0 0.00 0.00 0.00 40 1015.5
20260504195551 77 192 3.5 11.3 0.00 0.00 0.00 41 1015.7
20260504195052 77 151 1.7 11.3 0.00 0.00 0.00 42 1015.9
20260504194556 77 207 3.5 8.7 0.00 0.00 0.00 41 1015.8
20260504194052 77 184 3.5 12.2 0.00 0.00 0.00 41 1016.0
20260504193552 77 238 3.5 12.2 0.00 0.00 0.00 40 1016.0
20260504193054 77 196 5.2 12.2 0.00 0.00 0.00 41 1016.0
20260504192551 77 205 5.2 13.9 0.00 0.00 0.00 42 1016.1
20260504192054 77 215 4.3 13.9 0.00 0.00 0.00 44 1016.2
20260504191602 77 240 2.6 11.3 0.00 0.00 0.00 42 1016.0
20260504191051 77 262 2.6 11.3 0.00 0.00 0.00 43 1016.1
20260504190551 77 182 2.6 10.4 0.00 0.00 0.00 43 1016.2
20260504190100 77 196 4.3 10.4 0.00 0.00 0.00 43 1016.3
20260504185552 77 227 4.3 10.4 0.00 0.00 0.00 43 1016.4
20260504185052 77 262 4.3 10.4 0.00 0.00 0.00 43 1016.4
20260504184558 77 224 2.6 10.4 0.00 0.00 0.00 44 1016.4
20260504184052 77 241 4.3 9.6 0.00 0.00 0.00 45 1016.6
20260504183552 77 190 3.5 9.6 0.00 0.00 0.00 44 1016.6
20260504183059 77 224 3.5 10.4 0.00 0.00 0.00 44 1016.6
20260504182554 76 257 4.3 11.3 0.00 0.00 0.00 45 1016.7
20260504182054 76 252 3.5 12.2 0.00 0.00 0.00 44 1016.6
20260504181556 77 208 3.5 12.2 0.00 0.00 0.00 44 1016.7
20260504181052 78 242 2.6 9.6 0.00 0.00 0.00 44 1016.6
20260504180552 78 231 3.5 8.7 0.00 0.00 0.00 43 1016.6
20260504175555 78 168 0.9 7.0 0.00 0.00 0.00 44 1016.6
20260504175052 77 0 1.7 7.0 0.00 0.00 0.00 42 1016.7
20260504174552 78 180 1.7 6.1 0.00 0.00 0.00 43 1017.0
20260504174052 77 0 2.6 4.3 0.00 0.00 0.00 45 1017.0
20260504173553 77 131 0.9 9.6 0.00 0.00 0.00 43 1016.8
20260504173057 77 180 1.7 9.6 0.00 0.00 0.00 43 1016.9
20260504172552 77 222 1.7 7.0 0.00 0.00 0.00 43 1016.9
20260504172053 77 87 3.5 7.0 0.00 0.00 0.00 42 1016.7
20260504171555 77 188 2.6 7.8 0.00 0.00 0.00 41 1017.0
20260504171055 77 156 0.9 9.6 0.00 0.00 0.00 42 1017.0
20260504170555 76 132 2.6 10.4 0.00 0.00 0.00 43 1016.9
20260504151053 74 154 1.7 7.0 0.00 0.00 0.00 51 1017.6
20260504150553 74 195 0.9 5.2 0.00 0.00 0.00 50 1017.6
20260504141052 71 0 0.0 2.6 0.00 0.00 0.00 60 1017.6
20260504140552 70 0 0.0 2.6 0.00 0.00 0.00 59 1017.8
20260504130552 65 205 0.0 1.7 0.00 0.00 0.00 70 1017.7
20260504110554 56 0 0.0 0.0 0.00 0.00 0.00 84 1017.0
20260504100555 58 0 0.0 0.9 0.00 0.00 0.00 81 1017.1
20260504081555 59 0 0.0 0.0 0.00 0.00 0.00 80 1016.9
20260504081052 59 0 0.0 0.9 0.00 0.00 0.00 80 1017.1
20260504080552 59 0 0.0 1.7 0.00 0.00 0.00 79 1017.1
20260504050553 63 0 0.0 1.7 0.00 0.00 0.00 70 1018.6
20260504050108 63 0 0.0 1.7 0.00 0.00 0.00 70 1018.6
20260504045553 64 0 0.0 2.6 0.00 0.00 0.00 69 1018.6
20260504045052 64 0 0.9 2.6 0.00 0.00 0.00 69 1018.6
20260504044606 64 253 0.9 2.6 0.00 0.00 0.00 69 1018.7
20260504044053 64 253 0.0 3.5 0.00 0.00 0.00 70 1018.6
20260504043552 64 0 0.9 3.5 0.00 0.00 0.00 70 1018.8
20260504043055 64 0 0.9 3.5 0.00 0.00 0.00 70 1018.8
20260504042552 64 247 0.9 3.5 0.00 0.00 0.00 71 1018.8
20260504042052 64 221 0.9 3.5 0.00 0.00 0.00 71 1018.8
20260504041602 64 261 1.7 3.5 0.00 0.00 0.00 71 1018.8
20260504041053 65 211 0.9 2.6 0.00 0.00 0.00 71 1018.8
20260504040552 65 209 0.9 3.5 0.00 0.00 0.00 70 1018.8
20260504040104 65 209 0.9 3.5 0.00 0.00 0.00 69 1018.7
20260504035553 65 209 0.0 1.7 0.00 0.00 0.00 68 1018.6
20260504035053 65 0 0.0 3.5 0.00 0.00 0.00 67 1018.6
20260504034557 65 0 0.0 3.5 0.00 0.00 0.00 66 1018.7
20260504034057 65 0 0.9 2.6 0.00 0.00 0.00 66 1018.8
20260504033552 65 0 0.0 2.6 0.00 0.00 0.00 65 1018.7
20260504033054 65 0 0.0 2.6 0.00 0.00 0.00 65 1018.7
20260504032552 65 193 0.0 2.6 0.00 0.00 0.00 65 1018.7
20260504032052 65 0 0.0 2.6 0.00 0.00 0.00 65 1018.8
20260504031555 65 203 0.0 2.6 0.00 0.00 0.00 64 1018.8
20260504031052 65 203 0.0 1.7 0.00 0.00 0.00 64 1018.8
20260504030552 65 195 0.0 1.7 0.00 0.00 0.00 64 1018.8
20260504030055 66 0 0.0 1.7 0.00 0.00 0.00 64 1018.8
20260504025552 66 0 0.0 1.7 0.00 0.00 0.00 64 1018.8
20260504025052 66 0 0.0 1.7 0.00 0.00 0.00 64 1018.7
20260504024614 66 0 0.0 1.7 0.00 0.00 0.00 63 1018.6
20260504024053 66 0 0.0 1.7 0.00 0.00 0.00 61 1018.6
20260504023553 66 170 0.0 1.7 0.00 0.00 0.00 60 1018.5
20260504023054 67 170 0.0 1.7 0.00 0.00 0.00 59 1018.5
20260504022555 67 0 0.0 0.9 0.00 0.00 0.00 59 1018.5
20260504022052 67 0 0.0 0.9 0.00 0.00 0.00 58 1018.5
20260504021555 67 170 0.0 1.7 0.00 0.00 0.00 57 1018.4
20260504021052 67 0 0.0 1.7 0.00 0.00 0.00 57 1018.3
20260504020552 67 0 0.0 2.6 0.00 0.00 0.00 56 1018.3
20260504020054 67 0 0.0 2.6 0.00 0.00 0.00 57 1018.3
20260504015553 68 144 0.0 2.6 0.00 0.00 0.00 56 1018.2
20260504015053 68 129 0.9 2.6 0.00 0.00 0.00 55 1018.2
20260504014605 68 0 0.0 0.9 0.00 0.00 0.00 54 1018.2
20260504014052 68 0 0.0 1.7 0.00 0.00 0.00 54 1018.1
20260504013552 69 0 0.0 1.7 0.00 0.00 0.00 54 1018.0
20260504013056 69 0 0.9 1.7 0.00 0.00 0.00 54 1017.9
20260504012555 69 0 0.0 0.9 0.00 0.00 0.00 53 1017.9
20260504012051 70 0 0.0 0.9 0.00 0.00 0.00 53 1018.0